[[{"header":{"parameterUnit":"m.s-1","parameterCategory":1,"la1":30.2991,"la2":30.254,"lo1":-89.0895,"lo2":-89.0444,"dy":0.0017,"dx":0.0017,"nx":28,"ny":28,"refTime":"2024-08-04T21:00:00:Z","depth":0,"parameterNumber":2,"parameterNumberName":"U-component_of_WINDS"},"data":[0,0,0,0,0,0,0,0,0,0,0,0,0,0,0,0,0,0,0,0,0,0,0,0,0,0,0,0,0,0,0,0,0,0,0,0,0,0,0,0,0,0,0,0,0,0,0,0,0,0,0,0,0,0,0,0,0,0,-2.6147,-2.6146,0,-2.6034,-2.6033,-2.6032,-2.5937,-2.5936,-2.5935,-2.5934,-2.582,-2.5818,-2.5816,0,0,0,0,0,0,0,0,0,0,0,0,0,-2.6282,-2.628,-2.6147,-2.6146,-2.6144,-2.6034,-2.6033,-2.6031,-2.5938,-2.5936,-2.5935,-2.5934,-2.5821,-2.5818,-2.5816,0,0,0,0,0,0,0,0,0,0,0,0,0,-2.6202,-2.628,-2.6147,-2.6084,-2.6077,-2.6035,-2.6033,-2.6031,-2.5938,-2.5936,-2.5935,-2.5933,-2.5821,-2.5818,-2.5815,-2.5826,0,0,-2.5806,-2.5804,0,0,0,0,0,0,0,0,-2.6207,-2.6197,-2.6095,-2.6088,-2.6081,-2.5998,-2.6038,-2.5962,-2.5938,-2.5991,-2.5934,-2.5933,-2.5881,-2.5872,-2.5855,-2.5821,-2.5816,-2.5805,-2.5803,-2.5802,-2.5801,0,0,0,0,0,0,0,-2.6212,-2.6202,-2.6102,-2.6093,-2.6085,-2.6062,-2.6049,-2.6024,-2.5946,-2.5986,-2.5979,-2.5967,-2.5876,-2.5858,-2.5851,-2.5814,-2.5805,-2.5803,-2.5801,-2.58,-2.5786,-2.5788,0,0,0,0,0,0,-2.6228,-2.6207,-2.6106,-2.6099,-2.6141,-2.6061,-2.6046,-2.6026,-2.5946,-2.5932,-2.5968,-2.5963,-2.5864,-2.5855,-2.5847,-2.5856,-2.5802,-2.5799,-2.5797,-2.5785,-2.5787,-2.5788,0,0,0,0,0,0,-2.6231,-2.6219,-2.611,-2.6151,-2.6135,-2.606,-2.6039,-2.6025,-2.6006,-2.5932,-2.5918,-2.5964,-2.5863,-2.5851,-2.5833,-2.5851,-2.5798,-2.5795,-2.5783,-2.5785,-2.5787,-2.5874,0,0,0,0,0,0,-2.6235,-2.6221,-2.6224,-2.6152,-2.6133,-2.6098,-2.604,-2.6024,-2.6001,-2.5993,-2.5924,-2.5911,-2.586,-2.5838,-2.5829,-2.5845,-2.5792,-2.5781,-2.5784,-2.5787,-2.5869,-2.5879,-2.5887,0,0,0,0,0,-2.624,-2.6253,-2.6225,-2.6213,-2.6136,-2.6099,-2.6088,-2.603,-2.6003,-2.6006,-2.5958,-2.5913,-2.585,-2.5837,-2.5826,-2.5842,-2.578,-2.5783,-2.5786,-2.5865,-2.5877,-2.5887,0,0,0,0,0,0,-2.6329,-2.6242,-2.621,-2.6199,-2.6157,-2.6083,-2.6085,-2.6044,-2.6008,-2.6002,-2.5931,-2.5916,-2.5906,-2.5871,-2.5858,-2.5849,-2.5809,-2.5811,-2.5872,-2.5883,-2.5892,-2.5901,-2.579,0,0,0,0,0,-2.6348,-2.6325,-2.625,-2.6248,-2.6228,-2.6161,-2.6142,-2.6101,-2.6054,-2.6036,-2.5987,-2.5944,-2.5914,-2.5896,-2.5865,-2.5863,-2.5848,-2.5869,-2.5878,-2.5886,-2.5888,-2.5887,-2.5896,-2.58,-2.5799,-2.5799,0,0,-2.6385,-2.6335,-2.6325,-2.6264,-2.6227,-2.6206,-2.6146,-2.6125,-2.6109,-2.6033,-2.6012,-2.5975,-2.5923,-2.5913,-2.5906,-2.5884,-2.5912,-2.589,-2.5897,-2.5895,-2.5891,-2.59,-2.5909,-2.5802,-2.5801,-2.5801,0,0,-2.6444,-2.6403,-2.6397,-2.6361,-2.6305,-2.626,-2.6259,-2.6191,-2.6163,-2.6142,-2.6084,-2.6064,-2.6014,-2.598,-2.5956,-2.6003,-2.5961,-2.5994,-2.6042,-2.6041,-2.6049,-2.6055,-2.6074,-2.6081,-2.5997,-2.5997,-2.5997,0,-2.6498,-2.6463,-2.6399,-2.6383,-2.6359,-2.6288,-2.6283,-2.6251,-2.6188,-2.6173,-2.6149,-2.6086,-2.6046,-2.6028,-2.604,-2.6022,-2.602,-2.6002,-2.6053,-2.6059,-2.6064,-2.6081,-2.6087,-2.6002,-2.6001,-2.6001,-2.6,0,-2.6533,-2.651,-2.6512,-2.6453,-2.6429,-2.6418,-2.6354,-2.6337,-2.6298,-2.6256,-2.6236,-2.6185,-2.6143,-2.6136,-2.6097,-2.6113,-2.6101,-2.6066,-2.6024,-2.6079,-2.6093,-2.6099,-2.6008,-2.6007,-2.6005,-2.6004,0,0,-2.6644,-2.6551,-2.6553,-2.6526,-2.646,-2.6441,-2.6428,-2.6386,-2.6374,-2.6333,-2.6321,-2.6281,-2.6249,-2.6222,-2.6179,-2.6178,-2.6221,-2.6143,-2.6141,-2.6161,-2.6237,-2.6265,-2.6274,-2.6192,-2.6193,-2.6194,-2.6242,0,-2.6692,-2.6664,-2.6607,-2.6597,-2.6576,-2.6509,-2.6498,-2.6457,-2.6417,-2.6394,-2.635,-2.6324,-2.6282,-2.6266,-2.6262,-2.6216,-2.6235,-2.6212,-2.6182,-2.6181,-2.6198,-2.6281,-2.631,-2.6358,-2.6248,-2.6248,-2.6249,0,-2.6745,-2.6708,-2.6697,-2.6633,-2.6622,-2.6613,-2.6571,-2.655,-2.6502,-2.6474,-2.6444,-2.6397,-2.6381,-2.6342,-2.6319,-2.6305,-2.6289,-2.6265,-2.6265,-2.6261,-2.622,-2.6281,-2.6372,-2.638,-2.6257,-2.6256,-2.6256,0,-2.6829,-2.6777,-2.6763,-2.6742,-2.6668,-2.6663,-2.6632,-2.6582,-2.6562,-2.6526,-2.6512,-2.6475,-2.6455,-2.6427,-2.6372,-2.6349,-2.6356,-2.6312,-2.6333,-2.6335,-2.6339,-2.634,-2.643,-2.6327,-2.6327,-2.6326,-2.6326,0,-2.6889,-2.6885,-2.68,-2.6792,-2.6786,-2.6721,-2.6717,-2.668,-2.6637,-2.6621,-2.6561,-2.6548,-2.6475,-2.6453,-2.641,-2.6399,-2.639,-2.6367,-2.6356,-2.6374,-2.6377,-2.6363,-2.6359,-2.6328,-2.6328,-2.6328,-2.6327,0,-2.6983,-2.6925,-2.6907,-2.6838,-2.6821,-2.6819,-2.6761,-2.6751,-2.6708,-2.6689,-2.6681,-2.6615,-2.6587,-2.6528,-2.6484,-2.6455,-2.6455,-2.6434,-2.6471,-2.6464,-2.649,-2.6489,-2.6576,-2.6585,-2.6475,-2.6476,-2.6477,0,-2.7026,-2.7021,-2.6952,-2.6937,-2.6909,-2.6885,-2.6864,-2.68,-2.6781,-2.6728,-2.6725,-2.6692,-2.6663,-2.6621,-2.6569,-2.6536,-2.6515,-2.6547,-2.6509,-2.6527,-2.6517,-2.6519,-2.6519,-2.6557,-2.6558,-2.6559,-2.656,0,-2.7109,-2.7081,-2.7053,-2.7016,-2.6993,-2.696,-2.6924,-2.6916,-2.6844,-2.6825,-2.6796,-2.6773,-2.6729,-2.6698,-2.6657,-2.6625,-2.6582,-2.6573,-2.6576,-2.6594,-2.6617,-2.6607,-2.6496,-2.6571,-2.657,-2.6569,-2.6569,-2.6568,-2.7179,-2.7173,-2.7124,-2.7095,-2.7062,-2.703,-2.7018,-2.6974,-2.6949,-2.6907,-2.6871,-2.6846,-2.68,-2.674,-2.6712,-2.6692,-2.667,-2.6675,-2.6676,-2.6679,-2.6687,-2.6619,-2.6684,-2.6683,-2.6683,-2.6683,-2.6682,0,-2.7261,-2.7226,-2.72,-2.7153,-2.7131,-2.7091,-2.705,-2.7034,-2.7013,-2.6973,-2.6946,-2.6913,-2.6883,-2.6829,-2.6795,-2.6789,-2.6769,-2.6783,-2.6783,-2.6777,-2.6707,-2.6708,-2.68,-2.68,-2.68,-2.68,-2.68,-2.68,-2.7301,-2.7288,-2.7255,-2.7226,-2.7191,-2.7166,-2.7146,-2.7117,-2.7086,-2.7052,-2.7027,-2.6992,-2.6947,-2.691,-2.6881,-2.6866,-2.6857,-2.6878,-2.6857,-2.6793,-2.6782,-2.6771,-2.6772,-2.6876,-2.6876,-2.6929,-2.6929,-2.693]},{"header":{"parameterUnit":"m.s-1","parameterCategory":1,"la1":30.2991,"la2":30.254,"lo1":-89.0895,"lo2":-89.0444,"dy":0.0017,"dx":0.0017,"nx":28,"ny":28,"refTime":"2024-08-04T21:00:00:Z","depth":0,"parameterNumber":3,"parameterNumberName":"V-component_of_WINDS"},"data":[0,0,0,0,0,0,0,0,0,0,0,0,0,0,0,0,0,0,0,0,0,0,0,0,0,0,0,0,0,0,0,0,0,0,0,0,0,0,0,0,0,0,0,0,0,0,0,0,0,0,0,0,0,0,0,0,0,0,0.5581,0.5581,0,0.5565,0.5565,0.5565,0.5537,0.5536,0.5536,0.5535,0.5517,0.5517,0.5517,0,0,0,0,0,0,0,0,0,0,0,0,0,0.5583,0.5583,0.5581,0.5581,0.558,0.5565,0.5565,0.5564,0.5537,0.5536,0.5536,0.5535,0.5517,0.5517,0.5517,0,0,0,0,0,0,0,0,0,0,0,0,0,0.5576,0.5584,0.5581,0.5565,0.5563,0.5565,0.5565,0.5564,0.5537,0.5536,0.5536,0.5535,0.5517,0.5517,0.5517,0.5532,0,0,0.5517,0.5517,0,0,0,0,0,0,0,0,0.5577,0.5576,0.5567,0.5566,0.5564,0.5552,0.5559,0.5554,0.5537,0.5547,0.5535,0.5535,0.5529,0.5528,0.5527,0.5531,0.5531,0.5517,0.5517,0.5517,0.5517,0,0,0,0,0,0,0,0.5577,0.5577,0.5574,0.5567,0.5565,0.5557,0.5555,0.5558,0.5543,0.5546,0.5544,0.5543,0.5528,0.5527,0.5526,0.553,0.5517,0.5517,0.5517,0.5517,0.5543,0.5543,0,0,0,0,0,0,0.5581,0.5577,0.5575,0.5574,0.5569,0.5558,0.5556,0.5557,0.5543,0.554,0.5543,0.5541,0.5527,0.5526,0.5525,0.554,0.5517,0.5517,0.5517,0.5542,0.5543,0.5544,0,0,0,0,0,0,0.5581,0.5581,0.5576,0.5575,0.5574,0.5559,0.556,0.5557,0.5556,0.554,0.5537,0.5545,0.5527,0.5525,0.553,0.5539,0.5517,0.5517,0.5541,0.5542,0.5543,0.557,0,0,0,0,0,0,0.5581,0.5581,0.5588,0.5575,0.5574,0.5582,0.5561,0.5557,0.5556,0.5553,0.5541,0.5538,0.5526,0.553,0.553,0.5538,0.5517,0.554,0.5542,0.5543,0.5568,0.5572,0.5575,0,0,0,0,0,0.5581,0.5596,0.5588,0.5588,0.5582,0.5582,0.5581,0.5567,0.5557,0.5562,0.5552,0.5539,0.5538,0.5531,0.5531,0.5539,0.554,0.5541,0.5543,0.5567,0.5571,0.5575,0,0,0,0,0,0,0.561,0.5594,0.5585,0.5597,0.5591,0.5578,0.5585,0.5573,0.557,0.5567,0.5549,0.5547,0.5553,0.5547,0.5539,0.5551,0.5537,0.5538,0.5555,0.5559,0.5562,0.5563,0.5517,0,0,0,0,0,0.5617,0.562,0.5606,0.5617,0.5615,0.56,0.56,0.559,0.5582,0.558,0.557,0.5563,0.5561,0.556,0.5557,0.5567,0.5563,0.5573,0.5576,0.5579,0.558,0.5582,0.5585,0.5549,0.5549,0.5549,0,0,0.5633,0.5625,0.5628,0.5623,0.5617,0.5618,0.5599,0.5602,0.5601,0.558,0.5583,0.5576,0.5566,0.5573,0.5575,0.5568,0.5589,0.5581,0.5583,0.5583,0.5583,0.5587,0.559,0.555,0.555,0.5549,0,0,0.5662,0.5657,0.5665,0.5659,0.5651,0.564,0.5642,0.563,0.5624,0.5627,0.561,0.561,0.5607,0.56,0.5596,0.562,0.5606,0.562,0.5636,0.5638,0.5641,0.5643,0.5649,0.5652,0.5621,0.5621,0.5621,0,0.5682,0.5685,0.567,0.5673,0.567,0.5651,0.5657,0.5652,0.5643,0.5641,0.5633,0.5627,0.562,0.5623,0.5628,0.5627,0.5626,0.562,0.5642,0.5644,0.5646,0.5652,0.5654,0.5622,0.5622,0.5622,0.5622,0,0.5708,0.571,0.5717,0.5708,0.5706,0.5711,0.5696,0.5695,0.5684,0.5674,0.5676,0.5666,0.566,0.566,0.565,0.5661,0.5656,0.5646,0.563,0.5651,0.5656,0.5658,0.5625,0.5624,0.5624,0.5623,0,0,0.5755,0.5737,0.5739,0.5734,0.5722,0.5722,0.5725,0.5719,0.5718,0.5712,0.5712,0.5709,0.5698,0.5694,0.5682,0.5684,0.57,0.5673,0.5672,0.5676,0.5708,0.5715,0.5718,0.5692,0.5692,0.5692,0.5708,0,0.5779,0.5784,0.577,0.5777,0.5776,0.5757,0.5759,0.5751,0.5741,0.5738,0.5728,0.5725,0.5712,0.5709,0.571,0.5698,0.5706,0.5697,0.5689,0.5689,0.5691,0.5721,0.5729,0.5745,0.571,0.5711,0.5711,0,0.5809,0.5803,0.581,0.5796,0.5795,0.5797,0.5789,0.5787,0.5777,0.5769,0.5764,0.575,0.575,0.5736,0.5734,0.5728,0.5724,0.5718,0.5718,0.5715,0.57,0.5717,0.575,0.5752,0.5714,0.5714,0.5714,0,0.5838,0.5833,0.5836,0.5832,0.5816,0.5817,0.581,0.5799,0.5796,0.5789,0.5785,0.5778,0.5774,0.5768,0.5752,0.5744,0.575,0.5736,0.5742,0.5743,0.5744,0.5744,0.5774,0.5744,0.5744,0.5744,0.5744,0,0.5865,0.587,0.5849,0.585,0.5854,0.5837,0.584,0.5832,0.5821,0.5819,0.5803,0.5801,0.5781,0.5777,0.5764,0.5763,0.5761,0.5754,0.575,0.5754,0.5755,0.5751,0.5748,0.5745,0.5745,0.5745,0.5745,0,0.5899,0.5885,0.5886,0.587,0.5866,0.5869,0.5855,0.5855,0.5844,0.5842,0.584,0.5822,0.5816,0.58,0.579,0.5781,0.5782,0.5777,0.5786,0.5783,0.5789,0.5788,0.5816,0.5818,0.5789,0.579,0.579,0,0.5916,0.5919,0.5903,0.5901,0.5894,0.5891,0.5887,0.587,0.5867,0.5854,0.5854,0.5847,0.584,0.583,0.5815,0.5807,0.58,0.581,0.5798,0.5801,0.5797,0.5796,0.5795,0.5812,0.5813,0.5813,0.5813,0,0.5947,0.594,0.5935,0.5928,0.5923,0.5916,0.5909,0.5907,0.5888,0.5884,0.5878,0.5872,0.5861,0.5853,0.5841,0.5833,0.5819,0.5817,0.5818,0.5821,0.5826,0.5821,0.5791,0.5817,0.5816,0.5816,0.5816,0.5816,0.5971,0.5972,0.596,0.5955,0.5947,0.594,0.5938,0.5927,0.5921,0.5911,0.5901,0.5895,0.5882,0.5865,0.5857,0.5851,0.5844,0.5846,0.5846,0.5846,0.5847,0.5828,0.5849,0.5849,0.5849,0.5849,0.5849,0,0.6,0.5991,0.5986,0.5975,0.5971,0.5959,0.5949,0.5946,0.5941,0.593,0.5923,0.5914,0.5906,0.5891,0.588,0.5878,0.5871,0.5876,0.5875,0.5873,0.5855,0.5854,0.5881,0.5881,0.5881,0.5881,0.5881,0.5881,0.6014,0.6013,0.6004,0.5999,0.599,0.5984,0.5979,0.5971,0.5963,0.5954,0.5947,0.5937,0.5924,0.5912,0.5903,0.5899,0.5895,0.5901,0.5894,0.5877,0.5874,0.5871,0.5871,0.59,0.59,0.5912,0.5912,0.5912]}]]